Location: Santiago
(33.4378°S, 70.6505°W)
Time: 21:11:13
(UTC+00:00)

ISS - Pass Details

Date: 14 February 2024
Orbit: 414 x 422 km, 51.6° (Epoch: 27 February)

Event Time Altitude Azimuth Distance (km) Brightness Sun altitude
Rises 00:16:56 0° 282° (WNW) 2,363 1.1 -8.7°
Reaches altitude 10° 00:19:25 10° 264° (W) 1,504 0.5 -9.2°
Maximum altitude 00:21:59 20° 214° (SW) 1,044 -0.9 -9.7°
Drops below altitude 10° 00:24:35 10° 164° (SSE) 1,514 -0.8 -10.2°
Enters shadow 00:30:28 -10° 136° (SE) 3,685 0.8 -11.3°
